Location: Jodlow
(50.1500°N, 16.7500°E)
Time: 01:25:52
(UTC+02:00)

O/OREOS (USA 219) - Pass Details

Date: 05 April 2023
Orbit: 621 x 646 km, 72.0° (Epoch: 22 May)

Event Time Altitude Azimuth Distance (km) Brightness Sun altitude
Exits shadow 04:04:10 16° 160° (SSE) 1,679 ? -20.8°
Maximum altitude 04:07:07 31° 106° (ESE) 1,122 ? -20.4°
Drops below altitude 10° 04:11:08 10° 45° (NE) 2,030 ? -19.9°
Sets 04:13:35 0° 35° (NE) 2,939 ? -19.6°
